Regional Weather Roundup
Issued by NWS

Home | Current Version | Previous Version | Text Only | Print | Product List | Glossary On
Versions: 1 2 3 4 5 6 7 8 9 10 11 12 13 14 15 16 17 18 19 20 21 22 23 24 25 26 27 28
000
ASPQ40 PGUM 170112
RWRPQ
WEATHER ROUNDUP FOR THE MARIANAS AND MICRONESIA
NATIONAL WEATHER SERVICE TIYAN GU
1100 AM CHST SUN DEC 17 2017

GUZ001>004-170200-
MARIANA ISLANDS-

CITY           SKY/WX    TMP DP  RH WIND       PRES   REMARKS
GUAM AIRPORT   MOSUNNY   86  77  74 E16G26    29.88F HX  97
ANDERSEN AFB   PTSUNNY   84  75  74 E20G25    29.89F HX  92
ROTA AIRPORT   PTSUNNY   82  73  74 E20       29.88F
TINIAN AP      PTSUNNY   84  77  79 E15       29.87F HX  94
SAIPAN AP      MOSUNNY   88  77  70 E18       29.88F HX 100

$$

PMZ161-170200-
REPUBLIC OF PALAU-

CITY           SKY/WX    TMP DP  RH WIND       PRES   REMARKS
KOROR AP       CLOUDY    82  77  83 E5        29.83S HX  91
KOROR WSO      CLOUDY    84  75  74 CALM      29.84F HX  92

$$

PMZ171>174-170200-
FEDERATED STATES OF MICRONESIA-

CITY           SKY/WX    TMP DP  RH WIND       PRES   REMARKS
YAP AIRPORT    CLOUDY    79  75  89 W9        29.82F
CHUUK AP       LGT RAIN  79  77  94 VRB6      29.79
POHNPEI AP     CLOUDY    84  79  84 E7        29.80F HX  96
POHNPEI WSO    CLOUDY    84  79  84 NE8       29.83F HX  96
KOSRAE AP      NOT AVBL

$$

PMZ181-170200-
REPUBLIC OF THE MARSHALL ISLANDS-

CITY           SKY/WX    TMP DP  RH WIND       PRES   REMARKS
KWAJALEIN AP   MOSUNNY   88  75  66 E20       29.78F HX  97
MAJURO AP      LGT RAIN  84  77  79 NE18      29.76F HX  94
MAJURO WSO     LGT RAIN  81  77  89 E13       29.75F

$$





USA.gov is the U.S. government's official web portal to all federal, state and local government web resources and services.